Time,TemperatureF,DewpointF,PressureIn,WindDirection,WindDirectionDegrees,WindSpeedMPH,WindSpeedGustMPH,Humidity,HourlyPrecipIn,Conditions,Clouds,dailyrainin,SolarRadiationWatts/m^2,SoftwareType,DateUTC
2013-09-25 00:03:00,79.7,-99.9,29.71,NW,326,0.0,5.0,0,0.00,,,0.00,0,Wunderground v.1.15,2013-09-24 17:03:00,
2013-09-25 00:08:00,79.7,-99.9,29.71,NW,326,0.0,5.0,0,0.00,,,0.00,0,Wunderground v.1.15,2013-09-24 17:08:00,
2013-09-25 00:13:00,79.6,-99.9,29.71,NW,326,0.0,5.0,0,0.00,,,0.00,0,Wunderground v.1.15,2013-09-24 17:13:00,
2013-09-25 00:23:00,79.9,-99.9,29.71,NW,326,0.0,5.0,0,0.00,,,0.00,0,Wunderground v.1.15,2013-09-24 17:23:00,
2013-09-25 00:28:00,79.9,-99.9,29.71,NW,326,0.0,5.0,0,0.00,,,0.00,0,Wunderground v.1.15,2013-09-24 17:28:00,
2013-09-25 00:33:00,79.8,-99.9,29.71,NW,326,0.0,5.0,0,0.00,,,0.00,0,Wunderground v.1.15,2013-09-24 17:33:00,
2013-09-25 00:38:00,79.8,-99.9,29.71,NW,326,0.0,5.0,0,0.00,,,0.00,0,Wunderground v.1.15,2013-09-24 17:38:00,
2013-09-25 00:48:00,79.9,-99.9,29.70,NW,326,0.0,5.0,0,0.00,,,0.00,0,Wunderground v.1.15,2013-09-24 17:48:00,
2013-09-25 00:53:00,80.0,-99.9,29.70,NW,326,0.0,5.0,0,0.00,,,0.00,0,Wunderground v.1.15,2013-09-24 17:53:00,
2013-09-25 00:58:00,80.0,-99.9,29.70,NW,326,0.0,5.0,0,0.00,,,0.00,0,Wunderground v.1.15,2013-09-24 17:58:00,
2013-09-25 01:03:00,80.0,-99.9,29.70,NW,326,0.0,5.0,0,0.00,,,0.00,0,Wunderground v.1.15,2013-09-24 18:03:00,
2013-09-25 01:13:00,79.8,-99.9,29.70,NW,326,0.0,5.0,0,0.00,,,0.00,0,Wunderground v.1.15,2013-09-24 18:13:00,
2013-09-25 01:18:00,79.9,-99.9,29.69,NW,326,0.0,5.0,0,0.00,,,0.00,0,Wunderground v.1.15,2013-09-24 18:18:00,
2013-09-25 01:23:00,79.7,-99.9,29.69,NW,326,0.0,5.0,0,0.00,,,0.00,0,Wunderground v.1.15,2013-09-24 18:23:00,
2013-09-25 01:33:00,79.7,-99.9,29.69,NW,326,0.0,5.0,0,0.00,,,0.00,0,Wunderground v.1.15,2013-09-24 18:33:00,
2013-09-25 01:38:00,79.9,-99.9,29.69,NW,326,0.0,5.0,0,0.00,,,0.00,0,Wunderground v.1.15,2013-09-24 18:38:00,
2013-09-25 01:43:00,79.8,-99.9,29.69,NW,326,0.0,5.0,0,0.00,,,0.00,0,Wunderground v.1.15,2013-09-24 18:43:00,
2013-09-25 01:48:00,79.7,-99.9,29.69,North,357,0.0,5.0,0,0.00,,,0.00,0,Wunderground v.1.15,2013-09-24 18:48:00,
2013-09-25 01:58:00,79.8,-99.9,29.69,North,357,0.0,5.0,0,0.00,,,0.00,0,Wunderground v.1.15,2013-09-24 18:58:00,
2013-09-25 02:03:00,79.7,-99.9,29.68,North,357,0.0,5.0,0,0.00,,,0.00,0,Wunderground v.1.15,2013-09-24 19:03:00,
2013-09-25 02:08:00,79.6,-99.9,29.68,North,1,1.0,5.0,0,0.00,,,0.00,0,Wunderground v.1.15,2013-09-24 19:08:00,
2013-09-25 02:13:00,79.7,-99.9,29.68,North,1,1.0,1.0,0,0.00,,,0.00,0,Wunderground v.1.15,2013-09-24 19:13:00,
2013-09-25 02:23:00,79.9,-99.9,29.68,North,1,0.0,5.0,0,0.00,,,0.00,0,Wunderground v.1.15,2013-09-24 19:23:00,
2013-09-25 02:28:00,79.9,-99.9,29.68,North,1,0.0,5.0,0,0.00,,,0.00,0,Wunderground v.1.15,2013-09-24 19:28:00,
2013-09-25 02:33:00,79.9,-99.9,29.68,SE,133,0.0,5.0,0,0.00,,,0.00,0,Wunderground v.1.15,2013-09-24 19:33:00,
2013-09-25 02:43:00,79.9,-99.9,29.68,South,169,0.0,5.0,0,0.00,,,0.00,0,Wunderground v.1.15,2013-09-24 19:43:00,
2013-09-25 02:48:00,79.8,-99.9,29.68,South,169,0.0,5.0,0,0.00,,,0.00,0,Wunderground v.1.15,2013-09-24 19:48:00,
2013-09-25 02:53:00,79.7,-99.9,29.68,South,169,0.0,5.0,0,0.00,,,0.00,0,Wunderground v.1.15,2013-09-24 19:53:00,
2013-09-25 03:03:00,79.7,-99.9,29.67,NNW,330,0.0,5.0,0,0.00,,,0.00,0,Wunderground v.1.15,2013-09-24 20:03:00,
2013-09-25 03:08:00,79.6,-99.9,29.67,North,5,1.0,5.0,0,0.00,,,0.00,0,Wunderground v.1.15,2013-09-24 20:08:00,
2013-09-25 03:13:00,79.7,-99.9,29.67,North,5,1.0,1.0,0,0.00,,,0.00,0,Wunderground v.1.15,2013-09-24 20:13:00,
2013-09-25 03:23:00,79.6,-99.9,29.67,South,181,0.0,5.0,0,0.00,,,0.00,0,Wunderground v.1.15,2013-09-24 20:23:00,
2013-09-25 03:28:00,79.7,-99.9,29.67,South,181,0.0,5.0,0,0.00,,,0.00,0,Wunderground v.1.15,2013-09-24 20:28:00,
2013-09-25 03:33:00,79.7,-99.9,29.67,South,181,0.0,5.0,0,0.00,,,0.00,0,Wunderground v.1.15,2013-09-24 20:33:00,
2013-09-25 03:38:00,79.7,-99.9,29.67,South,181,0.0,5.0,0,0.00,,,0.00,0,Wunderground v.1.15,2013-09-24 20:38:00,
2013-09-25 03:48:00,79.6,-99.9,29.67,South,181,0.0,5.0,0,0.00,,,0.00,0,Wunderground v.1.15,2013-09-24 20:48:00,
2013-09-25 03:53:00,79.6,-99.9,29.67,South,181,0.0,5.0,0,0.00,,,0.00,0,Wunderground v.1.15,2013-09-24 20:53:00,
2013-09-25 03:58:00,79.6,-99.9,29.67,NW,316,0.0,5.0,0,0.00,,,0.00,0,Wunderground v.1.15,2013-09-24 20:58:00,
2013-09-25 04:08:00,79.7,-99.9,29.67,West,276,0.0,5.0,0,0.00,,,0.00,0,Wunderground v.1.15,2013-09-24 21:08:00,
2013-09-25 04:13:00,79.7,-99.9,29.67,West,276,0.0,5.0,0,0.00,,,0.00,0,Wunderground v.1.15,2013-09-24 21:13:00,
2013-09-25 04:18:00,79.6,-99.9,29.67,West,278,0.0,5.0,0,0.00,,,0.00,0,Wunderground v.1.15,2013-09-24 21:18:00,
2013-09-25 04:28:00,79.6,-99.9,29.67,West,278,0.0,5.0,0,0.00,,,0.00,0,Wunderground v.1.15,2013-09-24 21:28:00,
2013-09-25 04:33:00,79.7,-99.9,29.67,West,278,0.0,5.0,0,0.00,,,0.00,0,Wunderground v.1.15,2013-09-24 21:33:00,
2013-09-25 04:38:00,79.8,-99.9,29.67,West,278,0.0,5.0,0,0.00,,,0.00,0,Wunderground v.1.15,2013-09-24 21:38:00,
2013-09-25 04:43:00,79.7,-99.9,29.67,West,278,0.0,5.0,0,0.00,,,0.00,0,Wunderground v.1.15,2013-09-24 21:43:00,
2013-09-25 04:53:00,79.7,-99.9,29.67,West,278,0.0,5.0,0,0.00,,,0.00,0,Wunderground v.1.15,2013-09-24 21:53:00,
2013-09-25 04:58:00,79.8,-99.9,29.67,West,278,0.0,5.0,0,0.00,,,0.00,0,Wunderground v.1.15,2013-09-24 21:58:00,
2013-09-25 05:08:00,79.7,-99.9,29.67,West,278,0.0,5.0,0,0.00,,,0.00,0,Wunderground v.1.15,2013-09-24 22:08:00,
2013-09-25 05:13:00,79.8,-99.9,29.67,West,278,0.0,5.0,0,0.00,,,0.00,0,Wunderground v.1.15,2013-09-24 22:13:00,
2013-09-25 05:23:00,79.8,-99.9,29.68,SSW,193,0.0,5.0,0,0.00,,,0.00,0,Wunderground v.1.15,2013-09-24 22:23:00,
2013-09-25 05:28:00,79.8,-99.9,29.68,SSW,193,0.0,5.0,0,0.00,,,0.00,0,Wunderground v.1.15,2013-09-24 22:28:00,
2013-09-25 05:33:00,79.8,-99.9,29.68,West,265,0.0,5.0,0,0.00,,,0.00,0,Wunderground v.1.15,2013-09-24 22:33:00,
2013-09-25 05:38:00,79.8,-99.9,29.68,West,265,0.0,5.0,0,0.00,,,0.00,0,Wunderground v.1.15,2013-09-24 22:38:00,
2013-09-25 05:48:00,79.8,-99.9,29.69,West,265,0.0,5.0,0,0.00,,,0.00,0,Wunderground v.1.15,2013-09-24 22:48:00,
2013-09-25 05:53:00,79.7,-99.9,29.69,West,265,0.0,5.0,0,0.00,,,0.00,0,Wunderground v.1.15,2013-09-24 22:53:00,
2013-09-25 05:58:00,79.7,-99.9,29.69,West,265,0.0,5.0,0,0.00,,,0.00,0,Wunderground v.1.15,2013-09-24 22:58:00,
2013-09-25 06:03:00,79.7,-99.9,29.69,West,265,0.0,5.0,0,0.00,,,0.00,0,Wunderground v.1.15,2013-09-24 23:03:00,
2013-09-25 06:13:00,79.5,-99.9,29.69,West,266,0.0,5.0,0,0.00,,,0.00,0,Wunderground v.1.15,2013-09-24 23:13:00,
2013-09-25 06:18:00,79.6,-99.9,29.69,West,266,0.0,5.0,0,0.00,,,0.00,0,Wunderground v.1.15,2013-09-24 23:18:00,
2013-09-25 06:28:00,79.6,-99.9,29.69,West,266,0.0,5.0,0,0.00,,,0.00,9,Wunderground v.1.15,2013-09-24 23:28:00,
2013-09-25 06:33:00,79.5,-99.9,29.70,West,266,0.0,5.0,0,0.00,,,0.01,12,Wunderground v.1.15,2013-09-24 23:33:00,
2013-09-25 06:38:00,79.6,-99.9,29.70,West,266,0.0,5.0,0,0.00,,,0.01,21,Wunderground v.1.15,2013-09-24 23:38:00,
2013-09-25 06:43:00,79.5,-99.9,29.70,West,266,0.0,5.0,0,0.00,,,0.01,33,Wunderground v.1.15,2013-09-24 23:43:00,
2013-09-25 06:53:00,79.7,-99.9,29.70,West,266,0.0,5.0,0,0.00,,,0.01,102,Wunderground v.1.15,2013-09-24 23:53:00,
2013-09-25 06:58:00,79.9,-99.9,29.70,West,266,0.0,5.0,0,0.00,,,0.01,54,Wunderground v.1.15,2013-09-24 23:58:00,
2013-09-25 07:03:00,80.2,-99.9,29.71,West,266,0.0,5.0,0,0.00,,,0.01,137,Wunderground v.1.15,2013-09-25 00:03:00,
2013-09-25 07:13:00,80.6,-99.9,29.71,North,353,2.0,5.0,0,0.00,,,0.01,120,Wunderground v.1.15,2013-09-25 00:13:00,
2013-09-25 07:18:00,81.3,-99.9,29.72,North,359,3.0,5.0,0,0.00,,,0.01,200,Wunderground v.1.15,2013-09-25 00:18:00,
2013-09-25 07:28:00,82.0,-99.9,29.72,NE,41,2.0,5.0,0,0.00,,,0.01,111,Wunderground v.1.15,2013-09-25 00:28:00,
2013-09-25 09:23:00,84.7,-99.9,29.77,NNW,328,1.0,3.0,0,0.00,,,0.05,714,Wunderground v.1.15,2013-09-25 02:23:00,
2013-09-25 11:28:00,89.8,74.6,29.76,SSE,158,7.0,9.0,61,0.00,,,0.05,800,Wunderground v.1.15,2013-09-25 04:28:00,
2013-09-25 11:33:00,89.4,74.2,29.76,SE,124,8.0,8.0,61,0.00,,,0.05,612,Wunderground v.1.15,2013-09-25 04:33:00,
2013-09-25 11:43:00,89.6,72.9,29.76,SE,129,4.0,4.0,58,0.00,,,0.05,654,Wunderground v.1.15,2013-09-25 04:43:00,
2013-09-25 11:48:00,89.9,73.7,29.76,SSE,167,5.0,5.0,59,0.00,,,0.05,814,Wunderground v.1.15,2013-09-25 04:48:00,
2013-09-25 11:53:00,90.7,74.4,29.76,SSE,159,4.0,5.0,59,0.00,,,0.05,1350,Wunderground v.1.15,2013-09-25 04:53:00,
2013-09-25 12:03:00,90.4,73.6,29.75,SSE,160,4.0,4.0,58,0.00,,,0.05,837,Wunderground v.1.15,2013-09-25 05:03:00,
2013-09-25 12:08:00,89.9,72.6,29.75,NNE,22,3.0,4.0,57,0.00,,,0.05,531,Wunderground v.1.15,2013-09-25 05:08:00,
2013-09-25 12:18:00,90.4,72.6,29.75,North,1,4.0,5.0,56,0.00,,,0.05,531,Wunderground v.1.15,2013-09-25 05:18:00,
2013-09-25 12:23:00,91.5,72.5,29.75,SSW,195,4.0,4.0,54,0.00,,,0.05,962,Wunderground v.1.15,2013-09-25 05:23:00,
2013-09-25 12:33:00,90.3,71.9,29.75,NE,38,3.0,8.0,55,0.00,,,0.05,884,Wunderground v.1.15,2013-09-25 05:33:00,
2013-09-25 12:43:00,90.1,73.3,29.75,ESE,108,3.0,6.0,58,0.00,,,0.05,1028,Wunderground v.1.15,2013-09-25 05:43:00,
2013-09-25 12:53:00,90.0,73.2,29.74,North,0,5.0,10.0,58,0.00,,,0.05,828,Wunderground v.1.15,2013-09-25 05:53:00,
2013-09-25 12:58:00,89.7,74.0,29.74,NE,49,4.0,10.0,60,0.00,,,0.05,865,Wunderground v.1.15,2013-09-25 05:58:00,
2013-09-25 13:48:00,89.9,72.6,29.72,NW,316,4.0,5.0,57,0.00,,,0.05,960,Wunderground v.1.15,2013-09-25 06:48:00,
2013-09-25 13:53:00,90.3,70.8,29.72,SSE,153,4.0,4.0,53,0.00,,,0.05,1014,Wunderground v.1.15,2013-09-25 06:53:00,
2013-09-25 14:03:00,91.0,74.2,29.71,SE,134,2.0,3.0,58,0.00,,,0.05,969,Wunderground v.1.15,2013-09-25 07:03:00,
2013-09-25 14:08:00,90.5,72.7,29.71,WNW,302,3.0,11.0,56,0.00,,,0.05,223,Wunderground v.1.15,2013-09-25 07:08:00,
2013-09-25 14:13:00,90.3,74.0,29.71,NNE,32,4.0,4.0,59,0.00,,,0.05,719,Wunderground v.1.15,2013-09-25 07:13:00,
2013-09-25 14:23:00,90.4,74.1,29.70,WSW,255,3.0,3.0,59,0.00,,,0.05,939,Wunderground v.1.15,2013-09-25 07:23:00,
2013-09-25 14:28:00,90.6,72.8,29.70,NNE,13,3.0,3.0,56,0.00,,,0.05,823,Wunderground v.1.15,2013-09-25 07:28:00,
2013-09-25 14:33:00,91.4,75.1,29.70,SSE,150,2.0,2.0,59,0.00,,,0.05,803,Wunderground v.1.15,2013-09-25 07:33:00,
2013-09-25 14:43:00,90.8,75.5,29.70,North,1,3.0,4.0,61,0.00,,,0.05,744,Wunderground v.1.15,2013-09-25 07:43:00,
2013-09-25 14:48:00,91.0,73.1,29.69,South,179,3.0,5.0,56,0.00,,,0.05,777,Wunderground v.1.15,2013-09-25 07:48:00,
2013-09-25 14:53:00,90.2,73.9,29.69,ENE,60,4.0,4.0,59,0.00,,,0.05,775,Wunderground v.1.15,2013-09-25 07:53:00,
2013-09-25 14:58:00,90.0,71.7,29.69,NW,321,3.0,4.0,55,0.00,,,0.05,784,Wunderground v.1.15,2013-09-25 07:58:00,
2013-09-25 15:08:00,90.1,71.8,29.69,North,0,3.0,3.0,55,0.00,,,0.05,751,Wunderground v.1.15,2013-09-25 08:08:00,
2013-09-25 15:13:00,90.4,69.8,29.69,NE,47,3.0,3.0,51,0.00,,,0.05,605,Wunderground v.1.15,2013-09-25 08:13:00,
2013-09-25 15:18:00,90.3,72.5,29.69,NNW,330,3.0,5.0,56,0.00,,,0.05,710,Wunderground v.1.15,2013-09-25 08:18:00,
2013-09-25 15:28:00,90.1,72.8,29.69,North,349,3.0,4.0,57,0.00,,,0.05,515,Wunderground v.1.15,2013-09-25 08:28:00,
2013-09-25 15:33:00,89.8,72.5,29.68,North,10,2.0,2.0,57,0.00,,,0.05,605,Wunderground v.1.15,2013-09-25 08:33:00,
2013-09-25 15:38:00,89.4,71.1,29.68,North,11,3.0,3.0,55,0.00,,,0.05,594,Wunderground v.1.15,2013-09-25 08:38:00,
2013-09-25 15:43:00,89.5,70.7,29.68,ESE,107,3.0,3.0,54,0.00,,,0.05,548,Wunderground v.1.15,2013-09-25 08:43:00,
2013-09-25 15:53:00,89.4,71.1,29.68,WNW,297,2.0,2.0,55,0.00,,,0.05,517,Wunderground v.1.15,2013-09-25 08:53:00,
2013-09-25 15:58:00,89.5,68.4,29.68,SE,124,3.0,3.0,50,0.00,,,0.05,497,Wunderground v.1.15,2013-09-25 08:58:00,
2013-09-25 16:08:00,89.4,71.1,29.68,NW,306,2.0,2.0,55,0.00,,,0.05,464,Wunderground v.1.15,2013-09-25 09:08:00,
2013-09-25 16:13:00,89.2,69.8,29.68,South,172,2.0,3.0,53,0.00,,,0.05,438,Wunderground v.1.15,2013-09-25 09:13:00,
2013-09-25 16:18:00,88.9,70.6,29.68,NNE,13,2.0,3.0,55,0.00,,,0.05,420,Wunderground v.1.15,2013-09-25 09:18:00,
2013-09-25 16:23:00,88.7,67.7,29.68,North,11,2.0,2.0,50,0.00,,,0.05,394,Wunderground v.1.15,2013-09-25 09:23:00,
2013-09-25 16:33:00,88.3,64.9,29.69,NNE,32,2.0,5.0,46,0.00,,,0.05,130,Wunderground v.1.15,2013-09-25 09:33:00,
2013-09-25 16:38:00,87.8,65.1,29.69,North,9,2.0,5.0,47,0.00,,,0.05,141,Wunderground v.1.15,2013-09-25 09:38:00,
2013-09-25 16:48:00,87.4,61.5,29.69,NNE,19,2.0,3.0,42,0.00,,,0.05,56,Wunderground v.1.15,2013-09-25 09:48:00,
2013-09-25 16:53:00,87.3,63.4,29.69,East,91,2.0,2.0,45,0.00,,,0.05,51,Wunderground v.1.15,2013-09-25 09:53:00,
2013-09-25 16:58:00,87.3,64.0,29.69,SW,233,2.0,2.0,46,0.00,,,0.05,47,Wunderground v.1.15,2013-09-25 09:58:00,
2013-09-25 17:03:00,87.3,63.4,29.69,NNW,342,2.0,2.0,45,0.00,,,0.05,46,Wunderground v.1.15,2013-09-25 10:03:00,
2013-09-25 17:13:00,87.0,59.0,29.69,NE,44,2.0,2.0,39,0.00,,,0.05,53,Wunderground v.1.15,2013-09-25 10:13:00,
2013-09-25 17:18:00,86.8,59.6,29.69,NNE,18,2.0,4.0,40,0.00,,,0.05,37,Wunderground v.1.15,2013-09-25 10:18:00,
2013-09-25 17:23:00,86.5,56.4,29.69,NW,317,1.0,1.0,36,0.00,,,0.05,35,Wunderground v.1.15,2013-09-25 10:23:00,
2013-09-25 17:28:00,86.5,55.6,29.69,East,96,1.0,2.0,35,0.00,,,0.05,33,Wunderground v.1.15,2013-09-25 10:28:00,
2013-09-25 17:38:00,86.4,57.0,29.69,East,88,2.0,2.0,37,0.00,,,0.05,30,Wunderground v.1.15,2013-09-25 10:38:00,
2013-09-25 17:43:00,86.0,51.8,29.69,East,88,1.0,1.0,31,0.00,,,0.05,26,Wunderground v.1.15,2013-09-25 10:43:00,
2013-09-25 17:48:00,85.8,52.5,29.69,SSE,150,0.0,1.0,32,0.00,,,0.05,25,Wunderground v.1.15,2013-09-25 10:48:00,
2013-09-25 17:58:00,85.5,50.5,29.69,North,358,1.0,1.0,30,0.00,,,0.05,19,Wunderground v.1.15,2013-09-25 10:58:00,
2013-09-25 18:03:00,85.2,46.4,29.70,North,358,1.0,1.0,26,0.00,,,0.05,18,Wunderground v.1.15,2013-09-25 11:03:00,
2013-09-25 18:08:00,85.0,46.3,29.70,North,358,1.0,1.0,26,0.00,,,0.05,14,Wunderground v.1.15,2013-09-25 11:08:00,
2013-09-25 18:13:00,84.9,40.6,29.70,ESE,111,1.0,1.0,21,0.00,,,0.05,14,Wunderground v.1.15,2013-09-25 11:13:00,
2013-09-25 18:23:00,84.8,40.5,29.70,SSE,162,0.0,0.0,21,0.00,,,0.05,0,Wunderground v.1.15,2013-09-25 11:23:00,
2013-09-25 18:28:00,84.6,36.4,29.70,North,355,0.0,1.0,18,0.00,,,0.05,0,Wunderground v.1.15,2013-09-25 11:28:00,
2013-09-25 18:33:00,84.6,42.7,29.71,NNE,13,1.0,1.0,23,0.00,,,0.05,0,Wunderground v.1.15,2013-09-25 11:33:00,
2013-09-25 18:43:00,84.4,41.4,29.71,NNE,13,0.0,0.0,22,0.00,,,0.05,0,Wunderground v.1.15,2013-09-25 11:43:00,
2013-09-25 18:48:00,83.8,31.2,29.71,North,3,0.0,0.0,15,0.00,,,0.05,0,Wunderground v.1.15,2013-09-25 11:48:00,
2013-09-25 18:53:00,83.6,29.3,29.71,East,79,0.0,0.0,14,0.00,,,0.05,0,Wunderground v.1.15,2013-09-25 11:53:00,
2013-09-25 19:03:00,83.4,23.4,29.72,NNE,28,1.0,1.0,11,0.00,,,0.05,0,Wunderground v.1.15,2013-09-25 12:03:00,
2013-09-25 19:08:00,83.2,18.5,29.72,North,359,1.0,2.0,9,0.00,,,0.05,0,Wunderground v.1.15,2013-09-25 12:08:00,
2013-09-25 19:13:00,83.1,5.1,29.72,NE,40,1.0,1.0,5,0.00,,,0.05,0,Wunderground v.1.15,2013-09-25 12:13:00,
2013-09-25 19:18:00,83.0,-5.8,29.72,NE,40,1.0,1.0,3,0.00,,,0.05,0,Wunderground v.1.15,2013-09-25 12:18:00,
2013-09-25 19:28:00,82.9,0.2,29.72,SE,125,0.0,1.0,4,0.00,,,0.05,0,Wunderground v.1.15,2013-09-25 12:28:00,
2013-09-25 19:33:00,82.8,-99.9,29.73,ENE,69,0.0,0.0,0,0.00,,,0.05,0,Wunderground v.1.15,2013-09-25 12:33:00,
2013-09-25 19:38:00,82.8,-99.9,29.73,SE,146,1.0,1.0,0,0.00,,,0.05,0,Wunderground v.1.15,2013-09-25 12:38:00,
2013-09-25 19:48:00,82.9,-5.9,29.73,SSW,193,0.0,1.0,3,0.00,,,0.05,0,Wunderground v.1.15,2013-09-25 12:48:00,